LOG321 EGHI-EGPH

Flight info

Callsign LOG321
Flight time 1h 0m
Altitude 30000
Route NORRY Q41 SILVA UM605 DTY UY53 SAPCO UN57 POL UN601 RIBEL DCT INPIP
Aircraft E145/M-SABDFGRW/S

Departure

Time 2026-04-25 11:14
Airport Southampton Airport (EGHI)

Arrival

Time 2026-04-25 12:14
Airport Edinburgh Airport (EGPH)
Time Latitude Longitude Altitude Speed Heading
2026-04-25 10:48 50.94967 -1.36109 48 ft 0 kts 20°
2026-04-25 11:01 50.94965 -1.36110 48 ft 1 kts 20°
2026-04-25 11:01 50.94951 -1.36118 48 ft 2 kts 20°
2026-04-25 11:02 50.94937 -1.36126 48 ft 2 kts 20°
2026-04-25 11:02 50.94923 -1.36135 48 ft 2 kts 47°
2026-04-25 11:02 50.94917 -1.36156 48 ft 2 kts 93°
2026-04-25 11:02 50.94921 -1.36175 48 ft 1 kts 111°
2026-04-25 11:03 50.94922 -1.36181 48 ft 0 kts 110°
2026-04-25 11:07 50.94922 -1.36179 48 ft 0 kts 110°
2026-04-25 11:07 50.94920 -1.36172 48 ft 0 kts 110°
2026-04-25 11:08 50.94917 -1.36157 48 ft 7 kts 110°
2026-04-25 11:09 50.94897 -1.36069 48 ft 8 kts 109°
2026-04-25 11:09 50.94920 -1.35996 48 ft 9 kts 25°
2026-04-25 11:09 50.94986 -1.35959 48 ft 11 kts 20°
2026-04-25 11:09 50.95039 -1.35929 48 ft 5 kts 20°
2026-04-25 11:10 50.95051 -1.35873 48 ft 7 kts 108°
2026-04-25 11:10 50.95039 -1.35818 48 ft 8 kts 110°
2026-04-25 11:10 50.95028 -1.35690 48 ft 10 kts 46°
2026-04-25 11:10 50.95103 -1.35637 48 ft 14 kts 20°
2026-04-25 11:11 50.95209 -1.35575 48 ft 18 kts 20°
2026-04-25 11:11 50.95350 -1.35500 48 ft 23 kts 19°
2026-04-25 11:11 50.95505 -1.35415 48 ft 14 kts 19°
2026-04-25 11:11 50.95595 -1.35366 48 ft 8 kts 19°
2026-04-25 11:12 50.95657 -1.35333 48 ft 6 kts 13°
2026-04-25 11:12 50.95695 -1.35351 48 ft 4 kts 342°
2026-04-25 11:12 50.95705 -1.35312 48 ft 4 kts 141°
2026-04-25 11:12 50.95693 -1.35312 48 ft 0 kts 200°
2026-04-25 11:13 50.95615 -1.35356 48 ft 39 kts 199°
2026-04-25 11:14 50.95123 -1.35628 48 ft 107 kts 200°
2026-04-25 11:14 50.94260 -1.36107 147 ft 143 kts 200°
2026-04-25 11:14 50.93334 -1.36675 649 ft 148 kts 207°
2026-04-25 11:14 50.92492 -1.37660 1151 ft 156 kts 223°
2026-04-25 11:15 50.91710 -1.38826 1783 ft 157 kts 217°
2026-04-25 11:15 50.90842 -1.39847 2362 ft 157 kts 216°
2026-04-25 11:15 50.89909 -1.40935 2617 ft 180 kts 216°
2026-04-25 11:15 50.88861 -1.42153 3021 ft 192 kts 216°
2026-04-25 11:16 50.87283 -1.45357 4107 ft 201 kts 272°
2026-04-25 11:16 50.87748 -1.47325 4835 ft 195 kts 316°
2026-04-25 11:16 50.88901 -1.48250 5484 ft 193 kts 352°
2026-04-25 11:17 50.90278 -1.48515 5851 ft 212 kts 359°
2026-04-25 11:17 50.91844 -1.48141 5951 ft 243 kts 16°
2026-04-25 11:17 50.93268 -1.47401 6412 ft 252 kts 20°
2026-04-25 11:17 50.94901 -1.46424 7183 ft 252 kts 21°
2026-04-25 11:18 50.96537 -1.45401 7864 ft 255 kts 21°
2026-04-25 11:18 50.98168 -1.44368 8515 ft 258 kts 21°
2026-04-25 11:18 50.99844 -1.43303 9180 ft 261 kts 21°
2026-04-25 11:18 51.01512 -1.42241 9812 ft 264 kts 21°
2026-04-25 11:19 51.03218 -1.41155 10419 ft 267 kts 21°
2026-04-25 11:19 51.04744 -1.40183 10743 ft 279 kts 21°
2026-04-25 11:19 51.06602 -1.38998 11012 ft 295 kts 21°
2026-04-25 11:19 51.08516 -1.37776 11647 ft 296 kts 21°
2026-04-25 11:20 51.10418 -1.36560 12274 ft 298 kts 21°
2026-04-25 11:20 51.12343 -1.35329 12835 ft 301 kts 21°
2026-04-25 11:20 51.14295 -1.34080 13378 ft 304 kts 21°
2026-04-25 11:20 51.16259 -1.32821 13902 ft 307 kts 21°
2026-04-25 11:21 51.18248 -1.31546 14429 ft 310 kts 21°
2026-04-25 11:21 51.20257 -1.30256 14977 ft 313 kts 20°
2026-04-25 11:21 51.22277 -1.28958 15529 ft 315 kts 20°
2026-04-25 11:21 51.24325 -1.27641 16051 ft 318 kts 20°
2026-04-25 11:22 51.26355 -1.26334 16539 ft 320 kts 20°
2026-04-25 11:22 51.27722 -1.25453 16862 ft 322 kts 20°
2026-04-25 11:22 51.30505 -1.23658 17532 ft 325 kts 20°
2026-04-25 11:22 51.32614 -1.22297 17993 ft 327 kts 20°
2026-04-25 11:23 51.34734 -1.20927 18467 ft 330 kts 20°
2026-04-25 11:23 51.36862 -1.19550 18874 ft 333 kts 20°
2026-04-25 11:23 51.38992 -1.18170 19324 ft 335 kts 20°
2026-04-25 11:23 51.41191 -1.16745 19545 ft 346 kts 20°
2026-04-25 11:24 51.43448 -1.15281 19806 ft 353 kts 20°
2026-04-25 11:24 51.45687 -1.13826 20329 ft 352 kts 20°
2026-04-25 11:24 51.47947 -1.12385 20846 ft 350 kts 17°
2026-04-25 11:24 51.50280 -1.11346 21298 ft 349 kts 13°
2026-04-25 11:25 51.52622 -1.10346 21759 ft 350 kts 13°
2026-04-25 11:25 51.54966 -1.09342 22210 ft 350 kts 13°
2026-04-25 11:25 51.57335 -1.08326 22661 ft 351 kts 13°
2026-04-25 11:25 51.59660 -1.07326 23129 ft 350 kts 13°
2026-04-25 11:26 51.62022 -1.06381 23567 ft 350 kts
2026-04-25 11:26 51.64417 -1.05769 24051 ft 349 kts
2026-04-25 11:26 51.66798 -1.05159 24567 ft 347 kts
2026-04-25 11:26 51.69167 -1.04552 25053 ft 346 kts
2026-04-25 11:27 51.71563 -1.03938 25537 ft 345 kts
2026-04-25 11:27 51.73926 -1.03331 26008 ft 344 kts
2026-04-25 11:27 51.76277 -1.02726 26490 ft 343 kts
2026-04-25 11:27 51.77837 -1.02324 26787 ft 343 kts
2026-04-25 11:28 51.80959 -1.01520 27424 ft 340 kts
2026-04-25 11:28 51.83280 -1.00936 27870 ft 339 kts
2026-04-25 11:28 51.85602 -1.00849 28262 ft 336 kts 352°
2026-04-25 11:28 51.87904 -1.01492 28670 ft 333 kts 345°
2026-04-25 11:29 51.90167 -1.02264 29098 ft 332 kts 345°
2026-04-25 11:29 51.92410 -1.03005 29508 ft 332 kts 346°
2026-04-25 11:29 51.94677 -1.03747 29946 ft 330 kts 346°
2026-04-25 11:29 51.96909 -1.04475 30223 ft 334 kts 346°
2026-04-25 11:30 51.99245 -1.05237 30232 ft 346 kts 346°
2026-04-25 11:30 52.01624 -1.06013 30228 ft 356 kts 346°
2026-04-25 11:30 52.06565 -1.07625 30207 ft 371 kts 346°
2026-04-25 11:31 52.11745 -1.09319 30184 ft 384 kts 346°
2026-04-25 11:31 52.17055 -1.11070 30189 ft 395 kts 345°
2026-04-25 11:32 52.22224 -1.14177 30189 ft 402 kts 335°
2026-04-25 11:32 52.27438 -1.17692 30192 ft 410 kts 336°
2026-04-25 11:33 52.32738 -1.21262 30187 ft 418 kts 336°
2026-04-25 11:33 52.38139 -1.24907 30214 ft 424 kts 336°
2026-04-25 11:34 52.43641 -1.28631 30194 ft 430 kts 336°
2026-04-25 11:34 52.49192 -1.32398 30211 ft 435 kts 336°
2026-04-25 11:35 52.54770 -1.36172 30206 ft 440 kts 338°
2026-04-25 11:35 52.60542 -1.39617 30222 ft 443 kts 338°
2026-04-25 11:36 52.66314 -1.43103 30226 ft 446 kts 338°
2026-04-25 11:36 52.72132 -1.46630 30237 ft 444 kts 338°
2026-04-25 11:37 52.77922 -1.50151 30241 ft 444 kts 339°
2026-04-25 11:37 52.83736 -1.53696 30228 ft 446 kts 339°
2026-04-25 11:38 52.89534 -1.57241 30231 ft 448 kts 339°
2026-04-25 11:38 52.95388 -1.60830 30208 ft 448 kts 339°
2026-04-25 11:39 53.01183 -1.64394 30233 ft 446 kts 339°
2026-04-25 11:39 53.07018 -1.67993 30187 ft 446 kts 338°
2026-04-25 11:40 53.12830 -1.71589 30174 ft 444 kts 338°
2026-04-25 11:40 53.18610 -1.75176 30170 ft 443 kts 338°
2026-04-25 11:41 53.24338 -1.78741 30164 ft 442 kts 338°
2026-04-25 11:41 53.30103 -1.82339 30163 ft 442 kts 338°
2026-04-25 11:42 53.35833 -1.85925 30196 ft 442 kts 338°
2026-04-25 11:42 53.41568 -1.89525 30187 ft 442 kts 338°
2026-04-25 11:43 53.47353 -1.93167 30185 ft 443 kts 338°
2026-04-25 11:43 53.53099 -1.96794 30205 ft 444 kts 338°
2026-04-25 11:44 53.58885 -2.00459 30187 ft 446 kts 338°
2026-04-25 11:44 53.64696 -2.04149 30167 ft 447 kts 338°
2026-04-25 11:45 53.70457 -2.07818 30188 ft 447 kts 338°
2026-04-25 11:45 53.76249 -2.11583 30204 ft 447 kts 337°
2026-04-25 11:46 53.82013 -2.15521 30191 ft 447 kts 337°
2026-04-25 11:46 53.87793 -2.19471 30186 ft 448 kts 337°
2026-04-25 11:47 53.93546 -2.23413 30202 ft 447 kts 337°
2026-04-25 11:47 53.99300 -2.27367 30175 ft 448 kts 337°
2026-04-25 11:48 54.05067 -2.31343 30178 ft 448 kts 337°
2026-04-25 11:48 54.10840 -2.35333 30173 ft 449 kts 337°
2026-04-25 11:49 54.16621 -2.39342 30174 ft 449 kts 337°
2026-04-25 11:49 54.22400 -2.43360 30176 ft 449 kts 337°
2026-04-25 11:50 54.28130 -2.47358 30175 ft 449 kts 337°
2026-04-25 11:50 54.33890 -2.51389 30178 ft 449 kts 337°
2026-04-25 11:51 54.39653 -2.55432 30179 ft 449 kts 337°
2026-04-25 11:51 54.42163 -2.57199 30180 ft 449 kts 337°
2026-04-25 11:52 54.47915 -2.61253 30185 ft 449 kts 337°
2026-04-25 11:52 54.53650 -2.65308 30167 ft 448 kts 336°
2026-04-25 11:53 54.59417 -2.69398 30184 ft 448 kts 336°
2026-04-25 11:53 54.65148 -2.73475 30188 ft 448 kts 336°
2026-04-25 11:54 54.70902 -2.77581 29598 ft 452 kts 336°
2026-04-25 11:54 54.76666 -2.81706 28538 ft 451 kts 336°
2026-04-25 11:55 54.79579 -2.83797 28012 ft 451 kts 337°
2026-04-25 11:55 54.82439 -2.85852 27490 ft 451 kts 337°
2026-04-25 11:55 54.85357 -2.87950 26943 ft 449 kts 337°
2026-04-25 11:55 54.88205 -2.90004 26427 ft 442 kts 337°
2026-04-25 11:56 54.91016 -2.92033 25896 ft 437 kts 337°
2026-04-25 11:56 54.93785 -2.94035 25364 ft 426 kts 337°
2026-04-25 11:56 54.96443 -2.95960 24826 ft 411 kts 337°
2026-04-25 11:56 54.99041 -2.97844 24285 ft 398 kts 337°
2026-04-25 11:57 55.01537 -2.99656 23754 ft 387 kts 337°
2026-04-25 11:57 55.03966 -3.01422 23230 ft 377 kts 337°
2026-04-25 11:57 55.06352 -3.03158 22704 ft 368 kts 336°
2026-04-25 11:57 55.08688 -3.04862 22063 ft 362 kts 336°
2026-04-25 11:58 55.10979 -3.06534 21441 ft 357 kts 336°
2026-04-25 11:58 55.13248 -3.08192 20807 ft 352 kts 336°
2026-04-25 11:58 55.15500 -3.09840 20174 ft 348 kts 336°
2026-04-25 11:58 55.17702 -3.11453 19538 ft 344 kts 336°
2026-04-25 11:59 55.19875 -3.13047 18909 ft 340 kts 336°
2026-04-25 11:59 55.22058 -3.14649 18239 ft 338 kts 336°
2026-04-25 11:59 55.24193 -3.16219 17573 ft 337 kts 336°
2026-04-25 12:00 55.28460 -3.19363 16178 ft 333 kts 337°
2026-04-25 12:00 55.30596 -3.20938 15483 ft 331 kts 337°
2026-04-25 12:00 55.34735 -3.23996 14064 ft 320 kts 337°
2026-04-25 12:01 55.36746 -3.25485 13374 ft 313 kts 337°
2026-04-25 12:01 55.38733 -3.26958 12666 ft 305 kts 337°
2026-04-25 12:01 55.40634 -3.28367 12009 ft 290 kts 337°
2026-04-25 12:01 55.42435 -3.29705 11551 ft 276 kts 336°
2026-04-25 12:02 55.45930 -3.32305 10549 ft 273 kts 336°
2026-04-25 12:02 55.47662 -3.33596 10047 ft 273 kts 336°
2026-04-25 12:02 55.49409 -3.34908 9549 ft 272 kts 334°
2026-04-25 12:03 55.50937 -3.36780 9056 ft 269 kts 319°
2026-04-25 12:03 55.52349 -3.38887 8571 ft 269 kts 320°
2026-04-25 12:03 55.53786 -3.41021 8096 ft 268 kts 320°
2026-04-25 12:03 55.55189 -3.43106 7895 ft 261 kts 320°
2026-04-25 12:04 55.56555 -3.45138 7774 ft 257 kts 320°
2026-04-25 12:04 55.57920 -3.47170 7652 ft 259 kts 320°
2026-04-25 12:04 55.59312 -3.49244 7534 ft 259 kts 320°
2026-04-25 12:04 55.60680 -3.51285 7401 ft 258 kts 320°
2026-04-25 12:05 55.62032 -3.53303 7267 ft 257 kts 320°
2026-04-25 12:05 55.63403 -3.55353 7135 ft 256 kts 320°
2026-04-25 12:05 55.64757 -3.57352 6967 ft 255 kts 320°
2026-04-25 12:05 55.66123 -3.59381 6701 ft 260 kts 320°
2026-04-25 12:06 55.67508 -3.61447 6502 ft 259 kts 320°
2026-04-25 12:06 55.68869 -3.63480 6382 ft 251 kts 320°
2026-04-25 12:06 55.70179 -3.65430 6251 ft 244 kts 319°
2026-04-25 12:06 55.71468 -3.67354 6116 ft 238 kts 319°
2026-04-25 12:07 55.72723 -3.69225 6007 ft 234 kts 319°
2026-04-25 12:07 55.73967 -3.71084 5779 ft 231 kts 319°
2026-04-25 12:07 55.75180 -3.72902 5582 ft 230 kts 319°
2026-04-25 12:07 55.76381 -3.74718 5394 ft 226 kts 319°
2026-04-25 12:08 55.77640 -3.76301 5185 ft 221 kts 339°
2026-04-25 12:08 55.79128 -3.76415 4995 ft 215 kts 15°
2026-04-25 12:08 55.80539 -3.75528 4803 ft 215 kts 19°
2026-04-25 12:08 55.81923 -3.74527 4616 ft 216 kts 31°
2026-04-25 12:09 55.82908 -3.72574 4457 ft 213 kts 58°
2026-04-25 12:09 55.83671 -3.70335 4233 ft 211 kts 57°
2026-04-25 12:09 55.84436 -3.68131 3984 ft 211 kts 57°
2026-04-25 12:09 55.85199 -3.65912 3726 ft 211 kts 58°
2026-04-25 12:10 55.85944 -3.63735 3459 ft 205 kts 58°
2026-04-25 12:10 55.86686 -3.61593 3166 ft 201 kts 58°
2026-04-25 12:10 55.87406 -3.59494 2878 ft 196 kts 58°
2026-04-25 12:10 55.88056 -3.57584 2640 ft 168 kts 58°
2026-04-25 12:11 55.88654 -3.55846 2396 ft 162 kts 58°
2026-04-25 12:11 55.89232 -3.54167 2168 ft 156 kts 58°
2026-04-25 12:11 55.89782 -3.52553 1953 ft 151 kts 59°
2026-04-25 12:11 55.90300 -3.51025 1740 ft 138 kts 58°
2026-04-25 12:12 55.90799 -3.49580 1560 ft 137 kts 58°
2026-04-25 12:12 55.91128 -3.48618 1436 ft 135 kts 58°
2026-04-25 12:12 55.91764 -3.46749 1195 ft 131 kts 58°
2026-04-25 12:12 55.92236 -3.45361 1021 ft 131 kts 58°
2026-04-25 12:13 55.92710 -3.43984 853 ft 130 kts 58°
2026-04-25 12:13 55.93174 -3.42616 678 ft 127 kts 59°
2026-04-25 12:13 55.93631 -3.41274 499 ft 128 kts 58°
2026-04-25 12:13 55.94089 -3.39924 317 ft 127 kts 58°
2026-04-25 12:14 55.94543 -3.38589 142 ft 124 kts 58°
2026-04-25 12:14 55.94953 -3.37375 105 ft 96 kts 58°
2026-04-25 12:14 55.95198 -3.36659 104 ft 24 kts 56°
2026-04-25 12:14 55.95256 -3.36484 104 ft 10 kts 63°
2026-04-25 12:15 55.95229 -3.36392 104 ft 10 kts 148°
2026-04-25 12:15 55.95177 -3.36336 105 ft 5 kts 148°
2026-04-25 12:15 55.95142 -3.36305 105 ft 6 kts 173°
2026-04-25 12:15 55.95132 -3.36292 105 ft 3 kts 89°
2026-04-25 12:16 55.95132 -3.36215 105 ft 7 kts 104°
2026-04-25 12:16 55.95116 -3.36129 105 ft 8 kts 109°
2026-04-25 12:16 55.95095 -3.36019 105 ft 10 kts 107°
2026-04-25 12:16 55.95068 -3.35912 105 ft 8 kts 121°
2026-04-25 12:17 55.95036 -3.35834 106 ft 7 kts 148°
2026-04-25 12:17 55.94987 -3.35860 106 ft 7 kts 202°
2026-04-25 12:17 55.94944 -3.35865 106 ft 6 kts 182°
2026-04-25 12:17 55.94903 -3.35901 106 ft 5 kts 208°
2026-04-25 12:18 55.94878 -3.35925 106 ft 2 kts 208°
2026-04-25 12:18 55.94862 -3.35940 106 ft 0 kts 207°
2026-04-25 12:18 55.94862 -3.35941 106 ft 0 kts 207°